Current Version              Previous Version:    01  02  03  04  05  06  07  08  09  10  11  12  13  14  15  16  17  18  19  20  21  22  23  24  25  26  27  28  29  30  
   31  32  33  34  35  36  37  38  39  40  41  42  43  44  45  46  47  48  49  50  51  52  53  54  55  56  57  58  59  60  

[Printable]
096
ASUS44 KFWD 281503
RWRTX
NORTH TEXAS HOURLY WEATHER ROUNDUP
NATIONAL WEATHER SERVICE FORT WORTH TX
900 AM CST WED JAN 28 2015

NOTE: "FAIR" INDICATES FEW OR NO CLOUDS BELOW 12,000 FEET WITH NO
SIGNIFICANT WEATHER AND/OR OBSTRUCTIONS TO VISIBILITY.

TXZ118-119-281600-
DALLAS/FORT WORTH METROPLEX

CITY           SKY/WX    TMP DP  RH WIND       PRES   REMARKS
DFW AIRPORT    FAIR      58  43  57 S10       30.10S
DALLAS LOVE    MOSUNNY   58  43  57 S9        30.12R
FTW MEACHAM    SUNNY     56  44  64 S6        30.10S
DAL-EXECUTIVE  SUNNY     61  41  47 S6        30.11R
FTW-ALLIANCE   SUNNY     56  42  59 S7        30.09S
FTW-SPINKS     SUNNY     57  43  58 S8        30.13R
ARLINGTON      SUNNY     57  41  55 S7        30.12R
GRAND PRAIRIE  SUNNY     63  45  51 S9        30.13R
MESQUITE       SUNNY     52  43  71 SE7       30.14R
LANCASTER      SUNNY     51  42  71 S3        30.14R HAZE
$$

TXZ091>094-102>105-117-120-121-131>134-281600-
NORTH CENTRAL TEXAS

CITY           SKY/WX    TMP DP  RH WIND       PRES   REMARKS
SHRMAN/DENISON SUNNY     58  46  63 S12       30.10S
GAINESVILLE    SUNNY     50  42  73 SE5       30.11S
BRIDGEPORT     SUNNY     49  43  81 CALM      30.10S
DECATUR        SUNNY     59  39  47 SW7       30.09S
DENTON         SUNNY     52  44  74 SE3       30.10R
MCKINNEY       SUNNY     53  44  71 S9        30.12R
GREENVILLE       N/A     54  45  71 S6        30.14S HAZE
ROCKWALL       SUNNY     56  43  62 S10       30.12R
TERRELL        SUNNY     59  45  59 S9G22     30.14R
WAXAHACHIE     SUNNY     53  45  74 SE5       30.15R
CLEBURNE       SUNNY     54  45  71 S6        30.14S
GRANBURY       SUNNY     53  44  71 E3        30.13R
$$

TXZ083>090-098>101-113>116-127>130-139>142-154-155-281600-
WESTERN NORTH TEXAS

CITY           SKY/WX    TMP DP  RH WIND       PRES   REMARKS
WICHITA FALLS  SUNNY     54  39  57 SW10      30.05S
WF-KICKAPOO    SUNNY    N/A N/A N/A SW6       30.07S
VERNON         SUNNY     50  36  58 SW8       30.04F
ABILENE        SUNNY     59  38  45 SW7       30.11R
ABILENE-DYESS  SUNNY     62  41  45 SW10      30.10R
BRECKENRIDGE   SUNNY     58  39  49 S6        30.09S
MINERAL WELLS  SUNNY     53  41  63 SE6       30.09S
STEPHENVILLE   SUNNY     53  41  64 CALM      30.14S
COMANCHE       SUNNY     58  41  53 CALM      30.13S
BROWNWOOD      SUNNY     46  41  81 CALM      30.15S
COLEMAN        SUNNY     56  42  57 SW6       30.14R
BRADY          SUNNY     55  37  50 S3        30.14S
$$

TXZ143>147-156>162-174-175-281600-
CENTRAL TEXAS

CITY           SKY/WX    TMP DP  RH WIND       PRES   REMARKS
WACO           SUNNY     51  45  79 CALM      30.15R
WACO-TSTC      SUNNY     54  46  76 S6        30.16
WACO-MCGREGOR  SUNNY     54  41  62 CALM      30.16R
HILLSBORO      SUNNY     56  46  68 S6        30.15R
CORSICANA      SUNNY     58  44  60 S12       30.16R
MEXIA          SUNNY     55  45  68 S6        30.16R
HEARNE         SUNNY     51  45  78 CALM      30.18S
CAMERON        SUNNY     54  46  75 CALM      30.17R
TEMPLE         SUNNY     52  41  66 CALM      30.15R
KILLEEN        SUNNY     61  39  44 VRB5      30.15R
FORT HOOD      SUNNY     58  40  51 MISG      30.15R
GATESVILLE     SUNNY     52  43  71 CALM      30.17R
HAMILTON       SUNNY     60  40  48 SW9       30.15S
LAMPASAS       SUNNY     56  47  69 CALM      30.14S
$$

TXZ095>097-106>112-122>126-135>138-148>153-164>167-281600-
EAST TEXAS

CITY           SKY/WX    TMP DP  RH WIND       PRES   REMARKS
PARIS          SUNNY     52  41  66 E7        30.16S
SULPHUR SPRNGS SUNNY     59  44  56 S10G16    30.17R
MOUNT PLEASANT SUNNY     51  42  72 SE3       30.18S
GILMER         SUNNY     56  44  62 SE3       30.18R
MINEOLA        SUNNY     57  46  67 S6        30.16S
TYLER          SUNNY     59  45  59 S10       30.17R
LONGVIEW       SUNNY     53  47  79 CALM      30.18R
MARSHALL       SUNNY     53  46  75 S3        30.22R
ATHENS         SUNNY     54  43  66 S3        30.16R
PALESTINE      SUNNY     58  47  67 SE6       30.19R
HENDERSON      SUNNY     54  46  73 CALM      30.20R
NACOGDOCHES    SUNNY     52  46  82 CALM      30.21R
LUFKIN         SUNNY     57  46  66 SE6       30.21R
$$

SUPPLEMENTAL OBSERVATIONS (CENTRAL)

CITY           SKY/WX    TMP DP  RH WIND       PRES   REMARKS
$$

SUPPLEMENTAL OBSERVATIONS (WEST)

CITY           SKY/WX    TMP DP  RH WIND       PRES   REMARKS
$$

SUPPLEMENTAL OBSERVATIONS (EAST)

CITY           SKY/WX    TMP DP  RH WIND       PRES   REMARKS
$$

SUPPLEMENTAL OBSERVATIONS ARE A COLLECTION OF AUTOMATED INSTRUMENTS
THAT ARE MAINTAINED BY A VARIETY OF FEDERAL AND STATE AGENCIES.
CERTAIN ELEMENTS...SUCH AS HUMIDITY VALUES AND SUSTAINED WIND
SPEEDS...MAY BE APPROXIMATED.